Wind_Speed
21 21 21 21 22 22 21 20 22 22 22 23 23 23 23 21 20 20 19 18 17 16 15 15 15 15 14 14 14 14 13 12 11 10 10 10 9 8 8 8 7 7 6 6 6 5 6 5 5
22 22 22 22 23 22 20 21 23 23 23 24 25 25 24 23 22 22 21 20 19 18 17 16 16 16 16 15 15 15 15 14 13 12 12 11 11 10 10 9 9 8 8 7 7 7 7 7 7
23 23 23 23 23 22 21 22 23 23 24 25 26 26 26 24 24 23 23 22 20 19 18 18 17 17 17 16 16 16 16 15 15 14 14 13 13 12 11 11 10 10 10 9 9 9 8 8 9
23 23 24 24 23 22 22 23 22 23 24 25 26 27 27 26 26 25 24 23 22 21 20 20 19 18 18 18 17 17 17 17 16 16 15 15 15 14 13 12 12 12 12 11 11 10 10 10 10
24 24 25 24 24 23 23 23 23 23 24 25 26 26 26 27 26 26 26 24 23 22 22 22 21 20 20 19 19 18 18 18 18 17 17 17 16 16 15 14 14 14 13 13 12 12 12 12 12
24 25 25 24 24 23 24 24 24 24 25 25 26 27 26 26 27 27 27 26 26 25 23 23 22 22 21 21 20 20 19 19 19 19 18 18 17 17 16 16 16 16 15 15 15 14 14 14 14
24 25 25 24 24 24 24 25 25 25 25 26 27 27 27 26 27 28 29 28 27 27 25 24 24 23 23 23 22 22 21 21 21 21 20 19 19 18 18 18 17 17 17 17 17 16 16 16 17
25 25 25 25 25 24 25 25 25 26 27 27 28 29 27 27 28 28 29 29 28 27 27 26 25 25 25 25 24 24 24 23 23 22 22 21 20 20 20 20 19 19 19 19 19 19 19 19 19
26 26 25 25 26 26 27 27 26 28 28 27 27 29 29 29 29 29 29 30 30 29 28 27 27 26 26 26 26 26 25 25 24 24 24 23 22 22 22 22 21 21 22 21 21 21 21 21 21
27 27 26 26 27 28 28 28 28 29 29 28 28 29 29 30 31 30 30 31 31 31 30 29 29 28 27 27 28 27 27 27 26 26 25 25 25 24 24 24 23 23 24 23 24 24 23 24 24
27 27 27 27 27 28 29 29 29 29 29 30 30 30 30 31 32 32 31 31 32 32 32 32 31 30 29 29 29 29 29 28 28 28 27 27 27 27 26 26 26 25 26 26 26 26 25 26 26
28 28 28 27 27 28 29 29 29 29 30 31 31 31 32 32 33 33 33 32 33 33 34 33 33 32 32 31 31 31 31 31 30 29 29 29 28 28 28 28 28 28 28 28 28 28 28 28 27
28 28 28 28 27 28 28 28 28 29 30 31 31 32 33 33 34 33 33 34 34 34 34 34 34 34 33 33 33 32 32 32 32 31 31 31 30 29 29 29 29 30 30 29 29 30 30 30 29
28 28 28 27 27 28 28 28 29 29 30 31 32 32 33 33 33 34 34 34 34 35 35 35 35 35 34 35 35 34 34 33 33 33 33 32 32 31 31 31 31 31 31 31 31 32 31 31 31
29 29 28 28 28 28 29 29 28 28 29 30 30 32 33 33 33 34 35 35 35 35 36 36 36 36 36 36 36 37 36 35 34 35 35 34 33 33 34 34 34 34 33 34 33 33 33 33 32
30 30 30 29 29 29 30 29 28 28 29 29 30 31 32 33 34 34 35 35 36 36 36 37 37 37 37 37 38 38 38 37 37 36 36 36 36 35 35 35 35 35 35 35 35 35 35 35 34
30 30 30 29 30 30 30 29 28 29 29 30 30 31 31 32 34 35 35 36 37 37 37 37 38 38 38 38 39 40 40 39 38 37 37 38 38 38 38 38 37 36 36 37 36 36 36 36 36
30 30 30 30 31 31 31 30 29 30 30 30 30 31 32 32 33 34 36 37 37 38 38 38 38 38 39 40 40 40 40 40 39 39 39 39 40 39 39 39 38 38 37 37 37 37 36 36 36
31 32 32 32 32 33 32 32 30 31 31 31 31 31 32 33 33 34 35 36 38 39 38 38 38 39 39 39 39 40 40 40 41 41 40 40 40 40 38 39 38 38 38 38 38 37 37 36 36
31 32 32 33 33 34 33 32 31 31 31 31 31 31 31 33 33 34 33 35 37 39 39 39 38 38 39 39 39 39 40 40 40 40 40 39 39 39 38 37 38 38 38 38 38 37 36 36 35
30 31 32 33 33 34 34 33 31 30 31 31 30 31 31 31 32 32 33 34 35 37 39 39 39 39 38 38 39 39 39 40 40 40 40 40 39 39 38 37 36 37 38 38 39 39 38 37 35
29 30 31 33 33 34 34 35 31 31 30 31 31 30 31 32 32 33 34 34 34 36 38 39 39 39 38 38 38 38 39 40 40 40 40 40 40 39 39 38 38 38 38 38 39 39 38 38 38
28 29 30 32 33 35 35 36 33 31 31 31 30 31 32 33 33 33 34 35 35 35 37 38 39 39 39 39 39 39 40 40 40 40 41 41 41 41 40 39 39 39 38 38 38 39 39 41 42
28 29 30 31 32 34 33 35 35 32 31 31 31 31 33 34 34 34 34 35 35 35 36 37 39 40 40 40 40 40 41 41 41 41 41 42 42 42 41 41 40 40 40 39 39 40 41 41 42
27 28 29 30 31 32 32 35 35 33 32 32 31 31 32 33 34 35 35 35 35 35 36 37 38 39 40 40 41 41 41 41 41 42 42 42 42 42 42 42 42 41 42 41 41 42 43 43 43
25 26 27 28 29 30 31 33 34 34 34 33 32 32 32 31 32 33 34 35 36 36 37 37 38 39 39 40 41 41 41 41 41 42 41 42 42 42 42 43 43 43 43 43 43 43 43 43 44
25 25 26 28 29 30 31 32 33 33 34 35 34 33 33 32 32 32 33 34 35 36 37 37 38 39 39 39 40 40 41 41 41 42 41 42 43 43 43 44 44 45 44 44 44 43 44 44 44
25 25 25 27 28 30 30 30 31 31 32 34 34 34 34 33 33 33 33 34 35 36 37 37 37 38 39 40 40 41 42 42 42 42 42 42 43 44 44 45 46 46 46 45 44 44 44 44 45
24 24 25 27 27 28 29 29 30 30 30 32 33 34 34 33 34 34 34 35 36 36 37 37 37 38 39 40 41 41 41 42 43 43 43 44 44 44 45 45 46 47 47 47 46 46 46 45 45
23 24 25 26 27 28 29 30 29 30 30 31 32 33 33 33 34 34 35 36 36 36 37 38 38 39 39 40 41 41 42 42 43 44 44 45 45 45 45 46 47 48 48 48 48 48 47 46 46
Wind_Direction
255 254 254 254 254 253 255 255 253 250 247 245 245 243 243 243 244 247 247 246 245 243 243 242 240 239 238 238 238 238 236 236 236 236 232 235 237 238 239 239 241 241 240 242 244 244 244 247 253
255 255 255 255 256 256 256 256 253 250 247 246 244 243 243 242 244 246 247 246 245 244 244 242 240 240 239 239 239 239 238 238 239 240 238 239 240 240 242 242 243 244 244 245 248 250 250 251 254
255 256 256 256 256 256 254 252 252 251 248 246 245 244 243 242 242 244 245 246 244 243 243 243 241 241 240 239 239 240 240 241 241 243 243 244 245 243 244 246 246 247 248 248 252 254 256 257 257
255 256 256 255 255 254 253 253 253 250 248 247 246 245 244 243 242 242 242 243 243 242 242 243 242 241 241 240 240 241 241 241 242 244 245 245 247 246 247 249 248 250 251 252 254 257 258 259 261
255 256 256 256 256 255 254 253 251 248 246 248 247 246 244 242 241 240 239 241 241 241 242 242 243 243 242 241 241 242 243 241 241 243 245 245 246 248 249 251 250 252 253 254 256 259 261 262 262
256 255 256 256 256 255 253 252 252 250 247 248 248 246 244 242 241 239 239 240 241 241 241 243 244 244 243 242 242 243 244 244 244 243 244 245 246 249 251 252 253 253 255 256 257 259 262 263 263
259 258 256 256 256 254 252 252 253 252 249 247 248 246 243 242 242 241 241 241 241 241 242 243 243 244 243 243 244 245 245 245 245 245 245 246 248 251 253 254 254 255 257 258 259 260 263 265 265
259 258 257 256 256 254 253 253 252 253 252 249 247 246 244 243 243 242 242 241 241 241 241 242 243 243 243 244 245 246 246 247 247 245 246 247 249 252 255 255 257 257 259 260 261 263 265 266 266
259 258 257 257 257 256 255 254 253 253 252 251 250 247 244 243 242 243 244 243 242 242 242 242 243 243 244 245 246 246 247 249 250 247 247 248 250 254 257 258 259 260 261 262 264 265 267 268 268
258 258 259 259 258 257 257 256 253 252 250 250 250 248 245 243 243 243 243 244 243 243 242 242 243 243 244 245 246 247 248 249 250 249 249 251 253 255 258 260 261 262 262 263 265 267 268 269 268
259 260 260 260 259 259 258 256 253 252 250 250 250 249 246 246 245 244 243 243 243 243 242 242 243 245 245 245 246 247 248 249 250 251 251 253 256 257 259 260 262 263 264 264 266 268 268 268 268
260 260 261 260 259 258 257 256 253 251 250 250 250 250 248 246 246 245 243 243 243 243 242 243 244 245 246 246 247 249 248 249 251 252 253 255 258 260 261 262 263 264 266 267 266 267 269 269 267
259 261 262 260 259 259 259 258 256 254 252 252 251 251 249 247 246 245 244 243 243 243 243 243 244 245 246 246 247 249 249 250 252 253 253 255 257 259 261 263 265 266 267 268 269 269 269 269 266
259 260 259 259 259 259 259 258 257 256 255 253 252 251 249 248 247 245 244 244 243 243 243 243 244 245 246 247 247 249 250 250 252 253 254 256 258 259 262 264 266 268 268 269 270 270 270 269 267
259 259 258 257 259 260 260 259 258 258 257 254 253 252 251 249 248 247 246 246 245 245 244 244 244 245 246 248 248 250 251 253 253 255 256 257 259 262 263 264 266 268 269 270 271 271 269 269 268
259 259 258 258 259 260 262 261 258 258 258 256 254 253 252 250 249 249 247 247 248 247 248 247 246 247 248 249 249 250 252 253 255 256 257 257 259 261 264 266 266 268 269 271 272 271 269 268 268
260 260 259 260 260 260 261 260 258 259 259 258 256 253 251 251 251 250 249 248 248 248 248 248 249 249 249 250 252 251 252 255 255 256 257 257 259 261 263 266 268 270 270 270 271 271 269 268 267
262 261 260 262 262 260 259 259 258 259 260 259 258 256 253 252 253 253 252 250 249 249 249 249 250 251 251 251 252 253 254 254 256 257 257 258 259 261 264 266 267 267 269 269 271 270 269 268 267
263 261 260 261 262 261 259 258 258 259 260 261 259 258 256 255 255 255 254 251 250 251 250 251 251 252 253 253 253 254 255 256 257 258 258 259 259 261 264 266 267 268 268 268 269 269 268 268 267
265 263 261 261 262 261 259 259 260 261 261 261 259 258 258 257 257 257 257 255 254 253 253 252 253 252 253 254 254 255 255 256 257 258 260 260 261 262 265 267 268 268 269 269 269 268 267 267 266
266 264 262 262 261 261 261 260 260 261 261 260 260 258 257 258 259 259 258 258 257 255 252 252 253 253 254 254 254 254 255 256 257 259 261 263 263 262 264 265 268 269 269 270 270 268 267 265 265
266 264 262 262 262 262 263 264 261 261 262 261 260 258 257 257 258 259 259 258 257 255 253 253 253 253 254 254 254 255 257 258 259 260 262 264 266 265 265 267 268 269 270 270 269 267 266 265 265
268 265 264 263 263 262 262 264 262 262 263 263 261 259 258 257 258 259 259 259 258 256 254 253 252 252 253 254 254 255 257 259 259 260 261 263 265 266 267 268 270 270 271 271 269 266 266 268 268
270 267 265 265 265 263 262 264 264 263 263 264 263 262 260 258 257 258 258 258 258 257 255 254 254 254 255 256 256 257 258 259 260 261 262 264 265 266 268 269 270 271 270 271 269 268 269 269 268
272 270 268 267 266 266 265 264 264 263 264 264 265 264 262 259 258 259 258 256 256 257 256 256 256 257 257 257 258 258 259 260 261 262 263 264 265 266 267 268 271 271 271 271 269 270 271 271 270
274 271 270 270 269 269 267 266 265 264 264 264 264 263 261 261 260 260 258 257 257 257 257 257 257 257 258 259 259 259 259 260 261 262 263 264 265 265 266 267 269 271 270 270 270 270 271 271 270
275 271 271 271 270 270 268 267 266 266 265 265 264 263 262 261 260 260 259 259 259 258 258 257 256 257 259 260 260 260 260 261 262 262 263 264 265 265 266 267 268 269 269 269 271 270 270 270 271
276 274 270 270 271 271 271 271 270 269 268 265 263 263 262 261 260 260 260 260 260 258 258 258 257 258 258 259 260 261 262 262 262 264 264 265 266 266 266 266 267 268 268 270 270 270 271 271 271
277 273 270 269 269 272 274 272 272 272 270 268 265 264 262 262 261 260 261 261 261 260 258 257 257 258 259 260 261 262 263 262 262 263 263 264 266 266 266 266 267 268 269 269 269 270 271 271 271
278 274 272 270 269 271 273 273 275 273 272 270 268 266 265 263 262 261 261 261 261 261 260 259 258 260 261 262 262 262 263 264 263 263 263 264 265 266 266 267 267 267 268 269 270 271 271 271 271
Height
5808 5809 5809 5810 5811 5812 5813 5815 5816 5817 5819 5821 5823 5824 5826 5829 5831 5834 5834 5834 5836 5838 5839 5840 5841 5842 5844 5845 5846 5847 5848 5849 5850 5850 5851 5851 5852 5853 5853 5854 5854 5855 5855 5855 5856 5856 5856 5856 5856
5804 5804 5805 5806 5806 5807 5810 5810 5810 5812 5814 5816 5818 5820 5822 5824 5826 5828 5829 5831 5833 5835 5836 5837 5839 5840 5841 5843 5844 5845 5846 5847 5848 5849 5849 5850 5851 5851 5852 5852 5853 5853 5854 5854 5854 5855 5855 5855 5855
5799 5799 5801 5801 5801 5803 5804 5804 5805 5807 5809 5811 5813 5815 5818 5820 5822 5824 5825 5827 5829 5831 5833 5834 5836 5837 5838 5840 5841 5842 5843 5844 5846 5847 5847 5848 5849 5850 5850 5851 5851 5852 5852 5852 5853 5853 5853 5853 5854
5794 5795 5796 5796 5797 5798 5799 5800 5801 5802 5804 5805 5807 5810 5813 5815 5817 5819 5821 5823 5825 5827 5829 5831 5832 5834 5835 5837 5838 5840 5841 5842 5843 5844 5845 5846 5847 5848 5848 5849 5849 5850 5850 5851 5851 5851 5851 5852 5852
5789 5789 5790 5791 5792 5793 5794 5794 5795 5797 5798 5800 5802 5804 5807 5810 5812 5814 5816 5818 5821 5823 5825 5827 5829 5831 5832 5834 5835 5836 5838 5839 5840 5841 5842 5843 5844 5845 5846 5847 5847 5848 5848 5848 5849 5849 5849 5849 5849
5784 5784 5785 5786 5787 5788 5789 5789 5791 5792 5793 5795 5796 5799 5801 5804 5806 5809 5811 5814 5816 5819 5821 5823 5825 5827 5828 5830 5832 5833 5834 5835 5837 5838 5839 5840 5841 5842 5843 5844 5844 5845 5845 5846 5846 5846 5846 5847 5847
5779 5779 5779 5781 5781 5783 5784 5784 5786 5787 5788 5790 5791 5793 5796 5799 5801 5803 5806 5808 5811 5814 5816 5818 5820 5822 5824 5826 5828 5829 5831 5832 5833 5834 5836 5837 5838 5839 5840 5841 5841 5842 5842 5843 5843 5843 5843 5843 5843
5772 5774 5774 5775 5776 5777 5778 5779 5780 5781 5782 5785 5786 5788 5791 5794 5795 5798 5800 5803 5806 5809 5811 5813 5816 5818 5820 5821 5823 5825 5827 5828 5829 5830 5832 5833 5834 5835 5836 5837 5838 5838 5839 5839 5839 5840 5840 5840 5840
5767 5768 5769 5770 5771 5772 5772 5773 5775 5776 5777 5779 5780 5782 5786 5788 5790 5793 5795 5798 5800 5803 5806 5808 5811 5813 5815 5817 5818 5820 5822 5824 5825 5826 5828 5829 5830 5831 5832 5833 5833 5834 5834 5835 5835 5835 5835 5835 5835
5761 5762 5764 5764 5765 5765 5766 5768 5769 5770 5771 5773 5774 5776 5779 5782 5784 5787 5789 5792 5794 5797 5800 5803 5805 5807 5809 5811 5813 5815 5817 5819 5820 5822 5823 5824 5825 5827 5828 5828 5829 5829 5830 5830 5830 5830 5830 5830 5830
5755 5756 5758 5757 5758 5759 5760 5761 5762 5763 5765 5766 5768 5770 5773 5775 5778 5780 5783 5785 5788 5791 5794 5796 5799 5801 5804 5806 5807 5809 5811 5813 5815 5816 5818 5819 5820 5821 5823 5823 5824 5824 5825 5825 5825 5825 5824 5824 5823
5749 5750 5750 5751 5752 5752 5753 5754 5756 5757 5758 5759 5762 5763 5766 5768 5771 5774 5776 5779 5782 5785 5788 5790 5793 5795 5798 5800 5802 5803 5805 5807 5809 5811 5812 5813 5815 5816 5817 5817 5818 5819 5819 5819 5819 5818 5818 5817 5817
5742 5743 5743 5744 5745 5746 5747 5748 5749 5750 5751 5752 5755 5756 5758 5761 5764 5767 5769 5772 5775 5778 5781 5784 5786 5789 5791 5793 5795 5797 5799 5801 5803 5804 5806 5807 5809 5810 5811 5811 5812 5812 5812 5812 5812 5812 5811 5810 5810
5736 5736 5736 5738 5738 5739 5740 5741 5742 5744 5744 5746 5748 5750 5752 5754 5757 5760 5762 5765 5768 5771 5774 5777 5779 5782 5784 5787 5789 5790 5792 5794 5796 5798 5799 5801 5802 5803 5804 5805 5805 5805 5805 5805 5805 5804 5803 5803 5803
5728 5729 5730 5731 5732 5732 5733 5735 5736 5737 5737 5738 5740 5743 5745 5747 5750 5753 5755 5758 5761 5764 5766 5769 5772 5775 5777 5780 5782 5783 5785 5787 5789 5791 5792 5794 5795 5796 5797 5797 5798 5798 5797 5797 5797 5796 5796 5796 5796
5721 5722 5723 5725 5725 5725 5727 5728 5730 5730 5730 5732 5734 5735 5737 5740 5743 5745 5748 5751 5753 5756 5759 5762 5765 5767 5770 5772 5774 5776 5778 5780 5781 5783 5785 5786 5787 5788 5789 5789 5790 5790 5789 5789 5789 5788 5788 5788 5788
5714 5715 5716 5718 5718 5719 5720 5722 5723 5723 5724 5726 5727 5729 5731 5733 5736 5738 5740 5743 5746 5749 5752 5754 5757 5760 5762 5764 5766 5768 5770 5772 5773 5775 5776 5778 5779 5780 5780 5781 5781 5781 5781 5781 5780 5780 5779 5779 5779
5708 5708 5709 5710 5710 5711 5712 5715 5716 5717 5718 5719 5721 5722 5724 5727 5729 5731 5733 5735 5738 5741 5744 5746 5749 5751 5754 5756 5758 5760 5761 5763 5765 5766 5768 5769 5770 5771 5772 5772 5772 5772 5772 5772 5771 5771 5771 5770 5771
5700 5701 5701 5703 5703 5704 5705 5707 5709 5710 5711 5713 5714 5716 5718 5719 5721 5723 5726 5728 5730 5732 5735 5738 5741 5743 5745 5747 5749 5751 5753 5755 5756 5758 5759 5760 5761 5762 5763 5763 5763 5763 5763 5763 5762 5762 5762 5762 5762
5693 5693 5694 5695 5696 5696 5698 5700 5703 5703 5705 5706 5708 5709 5711 5712 5714 5716 5718 5720 5722 5724 5727 5730 5732 5735 5737 5739 5741 5742 5744 5746 5748 5749 5750 5751 5752 5753 5753 5754 5754 5754 5754 5754 5753 5753 5753 5753 5753
5687 5687 5687 5688 5688 5688 5690 5693 5696 5697 5698 5699 5701 5702 5704 5705 5707 5709 5711 5712 5714 5716 5718 5721 5724 5726 5728 5730 5732 5734 5735 5737 5739 5741 5742 5743 5743 5744 5745 5745 5745 5745 5745 5745 5744 5744 5744 5745 5745
5680 5680 5680 5680 5681 5682 5684 5684 5689 5690 5691 5692 5694 5695 5697 5699 5700 5702 5703 5704 5706 5708 5710 5713 5715 5718 5720 5722 5723 5725 5727 5729 5731 5732 5733 5734 5734 5735 5736 5736 5736 5736 5736 5735 5735 5735 5735 5736 5737
5672 5672 5673 5673 5673 5674 5676 5676 5681 5683 5684 5686 5688 5689 5690 5691 5693 5694 5695 5696 5698 5700 5702 5704 5707 5709 5711 5713 5715 5717 5718 5720 5721 5723 5724 5725 5725 5726 5727 5727 5727 5727 5727 5726 5726 5725 5726 5726 5727
5665 5666 5666 5665 5664 5666 5670 5669 5672 5676 5677 5679 5680 5681 5682 5683 5685 5686 5688 5689 5690 5692 5694 5696 5698 5700 5702 5704 5706 5708 5709 5710 5712 5713 5714 5715 5716 5716 5717 5717 5718 5718 5717 5717 5717 5716 5716 5716 5716
5659 5660 5659 5658 5657 5659 5662 5661 5664 5668 5669 5670 5672 5673 5674 5675 5676 5678 5679 5681 5683 5684 5685 5687 5689 5691 5692 5694 5696 5698 5700 5701 5702 5703 5705 5705 5706 5707 5707 5708 5708 5708 5708 5707 5707 5706 5706 5706 5706
5653 5653 5653 5652 5652 5652 5653 5653 5657 5659 5660 5661 5663 5663 5664 5666 5667 5669 5671 5672 5674 5676 5677 5678 5680 5681 5683 5685 5686 5688 5689 5691 5692 5693 5694 5695 5696 5696 5697 5697 5698 5698 5697 5697 5696 5696 5695 5695 5695
5646 5646 5646 5645 5644 5644 5645 5646 5649 5650 5651 5653 5654 5655 5656 5657 5659 5660 5662 5663 5665 5666 5668 5669 5671 5672 5673 5675 5676 5678 5679 5680 5682 5683 5684 5684 5685 5685 5686 5686 5687 5687 5686 5686 5685 5684 5684 5684 5683
5640 5639 5639 5638 5637 5636 5638 5639 5641 5642 5643 5644 5645 5646 5647 5648 5650 5651 5653 5654 5656 5657 5659 5660 5661 5662 5663 5665 5666 5667 5668 5669 5671 5672 5673 5673 5674 5674 5674 5675 5675 5675 5675 5675 5674 5674 5673 5672 5672
5633 5633 5631 5631 5631 5630 5630 5634 5633 5634 5634 5635 5635 5636 5638 5640 5641 5642 5644 5645 5646 5647 5649 5650 5651 5652 5653 5654 5655 5657 5657 5658 5659 5660 5661 5662 5662 5662 5662 5663 5663 5663 5663 5663 5662 5662 5661 5661 5660
5625 5625 5625 5625 5624 5624 5623 5627 5626 5626 5626 5626 5627 5628 5629 5631 5632 5633 5634 5635 5636 5637 5638 5640 5641 5642 5643 5644 5645 5645 5646 5647 5648 5648 5649 5650 5650 5651 5651 5651 5651 5651 5651 5650 5650 5650 5649 5649 5649